EW4814 Weather Reports


Display with metric or nautical units.
time (UTC)temp
F
wind
direction
speed
MPH
gust
MPH
rain 1hr
in
rain 24hr
in
rain mn
in
humidity
%
barometer
mb
20260505094530 59 179 1.0 4.0 0.00 0.00 0.00 76 1008.9
20260505093004 60 157 3.0 7.0 0.00 0.00 0.00 75 1008.9
20260505091600 60 204 3.0 11.0 0.00 0.00 0.00 74 1008.7
20260505090036 60 191 3.0 8.0 0.00 0.00 0.00 74 1008.6
20260505085540 61 153 3.0 9.0 0.00 0.00 0.00 74 1009.4
20260505084514 61 162 3.0 9.0 0.00 0.00 0.00 73 1008.6
20260505083045 61 138 3.0 9.0 0.00 0.00 0.00 72 1008.7
20260505081629 61 196 2.0 9.0 0.00 0.00 0.00 71 1008.6
20260505080505 62 194 4.0 8.0 0.00 0.00 0.00 71 1009.5
20260505080145 61 188 3.0 8.0 0.00 0.00 0.00 71 1008.7
20260505074538 61 217 1.0 7.0 0.00 0.00 0.00 71 1008.8
20260505074525 62 193 3.0 8.0 0.00 0.00 0.00 71 1009.7
20260505071507 61 184 3.0 9.0 0.00 0.00 0.00 70 1008.7
20260505070524 61 174 3.0 6.0 0.00 0.00 0.00 70 1009.4
20260505070016 61 199 1.0 6.0 0.00 0.00 0.00 70 1008.7
20260505064517 60 187 4.0 9.0 0.00 0.00 0.00 70 1008.5
20260505064503 61 174 4.0 7.0 0.00 0.00 0.00 70 1009.2
20260505063117 60 209 4.0 9.0 0.00 0.00 0.00 71 1008.5
20260505062525 60 178 4.0 10.0 0.00 0.00 0.00 72 1009.3
20260505061533 60 160 4.0 8.0 0.00 0.00 0.00 72 1008.6
20260505061003 60 165 4.0 8.0 0.00 0.00 0.00 72 1009.4
20260505060017 59 182 3.0 7.0 0.00 0.00 0.00 74 1008.5
20260505060005 59 165 3.0 8.0 0.00 0.00 0.00 74 1009.3
20260505054609 59 146 1.0 4.0 0.00 0.00 0.00 72 1008.7
20260505053026 59 153 2.0 4.0 0.00 0.00 0.00 71 1008.8
20260505053004 60 147 2.0 5.0 0.00 0.00 0.00 71 1009.5
20260505051004 60 169 3.0 6.0 0.00 0.00 0.00 70 1009.6
20260505050505 60 158 3.0 10.0 0.00 0.00 0.00 70 1009.6
20260505041538 60 157 1.0 5.0 0.00 0.00 0.00 68 1008.7
20260505040012 60 170 2.0 5.0 0.00 0.00 0.00 66 1008.8
20260505034515 60 147 1.0 7.0 0.00 0.00 0.00 65 1008.8
20260505034504 61 147 2.0 7.0 0.00 0.00 0.00 65 1009.6
20260505034003 61 137 2.0 4.0 0.00 0.00 0.00 64 1009.7
20260505033015 61 140 1.0 4.0 0.00 0.00 0.00 63 1008.8
20260505032032 62 151 2.0 8.0 0.00 0.00 0.00 61 1009.6
20260505031516 62 144 2.0 8.0 0.00 0.00 0.00 60 1008.9
20260505024511 62 169 2.0 8.0 0.00 0.00 0.00 57 1009.1
20260505023003 63 148 2.0 5.0 0.00 0.00 0.00 55 1009.2
20260505021631 63 148 2.0 6.0 0.00 0.00 0.00 55 1009.2
20260505020154 64 157 1.0 5.0 0.00 0.00 0.00 54 1009.2
20260505014637 64 144 2.0 7.0 0.00 0.00 0.00 52 1009.2
20260505013015 64 149 1.0 5.0 0.00 0.00 0.00 52 1009.1
20260505011605 64 163 1.0 5.0 0.00 0.00 0.00 52 1008.9
20260505010525 65 159 1.0 3.0 0.00 0.00 0.00 51 1009.5
20260505010118 64 159 0.0 3.0 0.00 0.00 0.00 51 1008.7
20260505010006 65 158 1.0 3.0 0.00 0.00 0.00 50 1009.4
20260505004609 65 142 1.0 4.0 0.00 0.00 0.00 49 1008.5
20260505004504 66 152 1.0 4.0 0.00 0.00 0.00 48 1009.3
20260505004004 66 170 1.0 2.0 0.00 0.00 0.00 47 1009.2
20260505002010 68 167 3.0 8.0 0.00 0.00 0.00 45 1009.1
20260505001617 68 168 2.0 8.0 0.00 0.00 0.00 44 1008.4
20260505000053 69 167 3.0 8.0 0.00 0.00 0.00 43 1008.2
20260504234540 69 153 4.0 10.0 0.00 0.00 0.00 42 1008.2
20260504233103 70 188 5.0 8.0 0.00 0.00 0.00 41 1007.9
20260504230106 71 124 3.0 10.0 0.00 0.00 0.00 40 1007.8
20260504225503 71 197 6.0 18.0 0.00 0.00 0.00 41 1008.5
20260504224612 71 124 4.0 15.0 0.00 0.00 0.00 40 1007.9
20260504222504 72 165 5.0 9.0 0.00 0.00 0.00 40 1008.6
20260504221613 72 184 6.0 17.0 0.00 0.00 0.00 39 1007.9
20260504221008 72 233 5.0 13.0 0.00 0.00 0.00 40 1008.7
20260504220033 72 190 6.0 12.0 0.00 0.00 0.00 38 1007.9
20260504220020 72 203 5.0 14.0 0.00 0.00 0.00 39 1008.7
20260504214535 72 126 6.0 11.0 0.00 0.00 0.00 39 1008.0
20260504213004 72 193 3.0 16.0 0.00 0.00 0.00 38 1008.2
20260504212504 73 201 6.0 13.0 0.00 0.00 0.00 37 1009.0
20260504212006 73 187 6.0 14.0 0.00 0.00 0.00 40 1008.8
20260504211004 72 205 7.0 12.0 0.00 0.00 0.00 39 1008.9
20260504210505 72 204 6.0 15.0 0.00 0.00 0.00 37 1008.9
20260504210024 73 212 5.0 15.0 0.00 0.00 0.00 37 1009.0
20260504210006 72 205 9.0 15.0 0.00 0.00 0.00 38 1008.3
20260504204530 73 237 3.0 10.0 0.00 0.00 0.00 39 1008.3
20260504203051 72 200 5.0 13.0 0.00 0.00 0.00 38 1008.2
20260504201518 72 226 5.0 17.0 0.00 0.00 0.00 38 1008.3
20260504200506 73 149 5.0 16.0 0.00 0.00 0.00 37 1009.0
20260504200121 72 121 4.0 10.0 0.00 0.00 0.00 38 1008.3
20260504194558 72 155 4.0 13.0 0.00 0.00 0.00 39 1008.4
20260504194505 72 243 6.0 13.0 0.00 0.00 0.00 38 1009.2
20260504193503 72 193 7.0 15.0 0.00 0.00 0.00 38 1009.2
20260504193007 72 229 6.0 15.0 0.00 0.00 0.00 38 1008.5
20260504191540 72 244 4.0 9.0 0.00 0.00 0.00 39 1008.6
20260504191010 72 211 4.0 10.0 0.00 0.00 0.00 40 1009.6
20260504190105 72 272 5.0 14.0 0.00 0.00 0.00 39 1009.0
20260504184607 71 223 8.0 13.0 0.00 0.00 0.00 37 1009.2
20260504183050 71 188 9.0 19.0 0.00 0.00 0.00 38 1009.4
20260504181546 71 194 7.0 14.0 0.00 0.00 0.00 39 1009.6
20260504180107 70 151 4.0 11.0 0.00 0.00 0.00 40 1009.8
20260504175506 70 202 6.0 17.0 0.00 0.00 0.00 41 1010.5
20260504175004 70 188 7.0 17.0 0.00 0.00 0.00 41 1010.7
20260504173018 69 146 10.0 20.0 0.00 0.00 0.00 41 1010.1
20260504173005 70 166 7.0 17.0 0.00 0.00 0.00 41 1010.9
20260504171511 69 257 5.0 13.0 0.00 0.00 0.00 43 1010.3
20260504171506 69 237 7.0 23.0 0.00 0.00 0.00 43 1011.0
20260504171004 69 230 7.0 23.0 0.00 0.00 0.00 43 1011.2
20260504170142 68 213 6.0 18.0 0.00 0.00 0.00 42 1010.6
20260504160108 67 172 5.0 11.0 0.00 0.00 0.00 41 1011.5
20260504150507 65 189 8.0 15.0 0.00 0.00 0.00 49 1012.6
20260504150119 65 180 7.0 12.0 0.00 0.00 0.00 46 1011.9
20260504140527 62 234 4.0 12.0 0.00 0.00 0.00 58 1012.9
20260504130506 59 204 6.0 11.0 0.00 0.00 0.00 62 1013.3
20260504120157 54 181 6.0 12.0 0.00 0.00 0.00 72 1013.0
20260504100503 47 173 4.0 9.0 0.00 0.00 0.00 75 1013.6